Location: Newark
(3.0500°N, 36.0167°E)
Time: 08:03:54
(UTC+00:00)

A-11 Canister half - Pass Details

Date: 01 September 2019
Orbit: 1527 x 1682 km, 47.3° (Epoch: 15 September)

Event Time Altitude Azimuth Distance (km) Brightness Sun altitude
Rises 04:52:16 0° 236° (WSW) 4,694 11.0 19.3°
Reaches altitude 10° 04:55:30 10° 243° (WSW) 3,724 10.5 20.1°
Maximum altitude 05:04:15 43° 311° (NW) 2,094 9.7 22.2°
Drops below altitude 10° 05:13:17 10° 20° (NNE) 3,826 11.5 24.5°
Sets 05:16:41 0° 27° (NNE) 4,833 12.1 25.3°
